When you browse on this site, cookies collect data to enhance your experience and personalize the content and advertising you see.
Visit our Privacy Policy to learn more. By continuing to use the site, you agree to this use of cookies and data.
  • In Latvia
  • List of Countries
  • For 7 days
  • Water Temperature
  • Satellite Maps
  • Weather Map
  • Weather Widgets
  • user-avatar
    Login

    Hourly Weather Pratteln

    Today, 21 July, Sunday

    Time Temperature Precipitation Wind Pressure Humidity
    00:00 +21°C° 0.6 mm 1 mps 729 mmHg 89%
    01:00 +20°C° 0.6 mm 1 mps 730 mmHg 89%
    02:00 +20°C° 1.4 mm 1 mps 730 mmHg 91%
    03:00 +20°C° 1.4 mm 1 mps 730 mmHg 93%
    04:00 +20°C° 1.4 mm 1 mps 730 mmHg 94%
    05:00 +20°C° 0.4 mm 1 mps 730 mmHg 94%
    06:00 +20°C° 0.4 mm 1 mps 730 mmHg 93%
    07:00 +21°C° 0.4 mm 1 mps 731 mmHg 92%
    08:00 +22°C° 0.3 mm 1 mps 731 mmHg 88%
    09:00 +23°C° 0.3 mm 1 mps 731 mmHg 83%
    10:00 +24°C° 0.3 mm 2 mps 732 mmHg 78%
    11:00 +25°C° 0.2 mm 2 mps 732 mmHg 73%
    12:00 +26°C° 0.2 mm 3 mps 732 mmHg 67%
    13:00 +27°C° 0.2 mm 3 mps 732 mmHg 61%
    14:00 +28°C° 0.1 mm 3 mps 732 mmHg 59%
    15:00 +28°C° 0.1 mm 3 mps 732 mmHg 57%
    16:00 +28°C° 0.1 mm 3 mps 732 mmHg 55%
    17:00 +27°C° 0 mm 2 mps 732 mmHg 60%
    18:00 +26°C° 0 mm 2 mps 732 mmHg 65%
    19:00 +25°C° 0 mm 1 mps 732 mmHg 70%
    20:00 +24°C° 0 mm 1 mps 733 mmHg 74%
    21:00 +22°C° 0 mm 1 mps 733 mmHg 77%
    22:00 +20°C° 0 mm 1 mps 733 mmHg 81%
    23:00 +18°C° 0 mm 0 mps 733 mmHg 83%

    Tomorrow, 22 July, Monday

    Time Temperature Precipitation Wind Pressure Humidity
    00:00 +17°C° 0 mm 0 mps 733 mmHg 86%
    01:00 +17°C° 0 mm 0 mps 733 mmHg 88%
    02:00 +16°C° 0 mm 0 mps 733 mmHg 89%
    03:00 +16°C° 0 mm 0 mps 733 mmHg 90%
    04:00 +16°C° 0 mm 0 mps 733 mmHg 91%
    05:00 +17°C° 0 mm 0 mps 733 mmHg 89%
    06:00 +18°C° 0 mm 0 mps 733 mmHg 87%
    07:00 +19°C° 0 mm 0 mps 733 mmHg 84%
    08:00 +21°C° 0 mm 0 mps 733 mmHg 77%
    09:00 +25°C° 0 mm 1 mps 734 mmHg 69%
    10:00 +27°C° 0 mm 1 mps 734 mmHg 62%
    11:00 +28°C° 0 mm 1 mps 734 mmHg 58%
    12:00 +29°C° 0 mm 1 mps 733 mmHg 53%
    13:00 +31°C° 0 mm 1 mps 733 mmHg 49%
    14:00 +30°C° 0 mm 2 mps 733 mmHg 50%
    15:00 +30°C° 0 mm 2 mps 733 mmHg 50%
    16:00 +30°C° 0 mm 2 mps 733 mmHg 50%
    17:00 +29°C° 0 mm 2 mps 733 mmHg 57%
    18:00 +27°C° 0 mm 1 mps 732 mmHg 64%
    19:00 +26°C° 0 mm 1 mps 732 mmHg 72%
    20:00 +24°C° 0 mm 1 mps 732 mmHg 75%
    21:00 +23°C° 0 mm 1 mps 732 mmHg 78%
    22:00 +21°C° 0 mm 1 mps 733 mmHg 81%
    23:00 +21°C° 0 mm 1 mps 732 mmHg 83%

    Day after tomorrow, 23 July, Tuesday

    Time Temperature Precipitation Wind Pressure Humidity
    00:00 +20°C° 0 mm 1 mps 732 mmHg 86%
    01:00 +20°C° 0 mm 1 mps 732 mmHg 88%
    02:00 +20°C° 0 mm 1 mps 732 mmHg 89%
    03:00 +19°C° 0 mm 1 mps 731 mmHg 90%
    04:00 +19°C° 0 mm 1 mps 731 mmHg 90%
    05:00 +20°C° 0 mm 1 mps 731 mmHg 88%
    06:00 +21°C° 0 mm 1 mps 731 mmHg 85%
    07:00 +22°C° 0 mm 1 mps 731 mmHg 83%
    08:00 +24°C° 0 mm 1 mps 731 mmHg 75%
    09:00 +26°C° 0 mm 1 mps 731 mmHg 67%
    10:00 +28°C° 0 mm 1 mps 731 mmHg 59%
    11:00 +30°C° 0 mm 2 mps 731 mmHg 55%
    12:00 +31°C° 0 mm 2 mps 730 mmHg 50%
    13:00 +32°C° 0 mm 2 mps 730 mmHg 46%
    14:00 +32°C° 0 mm 2 mps 730 mmHg 46%
    15:00 +34°C° 0 mm 2 mps 730 mmHg 45%
    16:00 +34°C° 0 mm 2 mps 729 mmHg 45%
    17:00 +31°C° 0 mm 2 mps 729 mmHg 53%
    18:00 +30°C° 0 mm 1 mps 729 mmHg 60%
    19:00 +28°C° 0 mm 1 mps 729 mmHg 68%
    20:00 +27°C° 0 mm 1 mps 729 mmHg 71%
    21:00 +25°C° 0 mm 1 mps 729 mmHg 75%
    22:00 +24°C° 0 mm 1 mps 729 mmHg 79%
    23:00 +23°C° 0 mm 1 mps 729 mmHg 80%

    24 July, Wednesday

    Time Temperature Precipitation Wind Pressure Humidity
    00:00 +23°C° 0 mm 1 mps 729 mmHg 81%
    01:00 +22°C° 0 mm 1 mps 729 mmHg 82%
    02:00 +22°C° 0 mm 1 mps 728 mmHg 83%
    03:00 +22°C° 0 mm 1 mps 728 mmHg 84%
    04:00 +21°C° 0 mm 1 mps 728 mmHg 86%
    05:00 +22°C° 0 mm 1 mps 728 mmHg 84%
    06:00 +23°C° 0 mm 1 mps 728 mmHg 82%
    07:00 +24°C° 0 mm 1 mps 729 mmHg 79%
    08:00 +26°C° 0 mm 1 mps 729 mmHg 71%
    09:00 +29°C° 0 mm 1 mps 729 mmHg 63%
    10:00 +31°C° 0 mm 1 mps 729 mmHg 54%
    11:00 +32°C° 0 mm 1 mps 729 mmHg 50%
    12:00 +34°C° 0 mm 2 mps 729 mmHg 47%
    13:00 +35°C° 0 mm 2 mps 729 mmHg 43%
    14:00 +35°C° 0 mm 2 mps 729 mmHg 42%
    15:00 +36°C° 0 mm 2 mps 729 mmHg 42%
    16:00 +36°C° 0 mm 2 mps 728 mmHg 41%
    17:00 +33°C° 0 mm 1 mps 728 mmHg 47%
    18:00 +32°C° 0 mm 1 mps 728 mmHg 53%
    19:00 +28°C° 0 mm 0 mps 728 mmHg 59%
    20:00 +27°C° 0 mm 0 mps 728 mmHg 61%
    21:00 +25°C° 0 mm 0 mps 729 mmHg 62%
    22:00 +24°C° 0 mm 0 mps 729 mmHg 63%
    23:00 +23°C° 0 mm 0 mps 729 mmHg 64%

    25 July, Thursday

    Time Temperature Precipitation Wind Pressure Humidity
    00:00 +23°C° 0 mm 0 mps 728 mmHg 66%
    01:00 +22°C° 0 mm 0 mps 728 mmHg 67%
    02:00 +22°C° 0 mm 0 mps 728 mmHg 70%
    03:00 +21°C° 0 mm 0 mps 728 mmHg 72%
    04:00 +21°C° 0 mm 0 mps 728 mmHg 75%
    05:00 +22°C° 0 mm 0 mps 728 mmHg 74%
    06:00 +22°C° 0 mm 0 mps 728 mmHg 74%
    07:00 +23°C° 0 mm 0 mps 728 mmHg 74%
    08:00 +26°C° 0 mm 0 mps 728 mmHg 67%
    09:00 +30°C° 0 mm 1 mps 728 mmHg 60%
    10:00 +32°C° 0 mm 1 mps 728 mmHg 54%
    11:00 +33°C° 0 mm 1 mps 728 mmHg 50%
    12:00 +35°C° 0 mm 1 mps 728 mmHg 46%
    13:00 +36°C° 0 mm 1 mps 728 mmHg 42%
    14:00 +36°C° 0 mm 1 mps 727 mmHg 41%
    15:00 +36°C° 0 mm 1 mps 727 mmHg 40%
    16:00 +36°C° 0 mm 1 mps 727 mmHg 39%
    17:00 +34°C° 0 mm 1 mps 726 mmHg 47%
    18:00 +33°C° 0 mm 1 mps 726 mmHg 55%
    19:00 +31°C° 0 mm 1 mps 726 mmHg 63%
    20:00 +30°C° 0 mm 1 mps 726 mmHg 67%
    21:00 +28°C° 0 mm 1 mps 726 mmHg 71%
    22:00 +27°C° 0 mm 1 mps 726 mmHg 75%
    23:00 +26°C° 0 mm 1 mps 726 mmHg 76%

    26 July, Friday

    Time Temperature Precipitation Wind Pressure Humidity
    00:00 +26°C° 0 mm 1 mps 726 mmHg 78%
    01:00 +25°C° 0 mm 1 mps 726 mmHg 79%
    02:00 +25°C° 0.5 mm 1 mps 726 mmHg 82%
    03:00 +24°C° 0.5 mm 1 mps 725 mmHg 85%
    04:00 +23°C° 0.5 mm 1 mps 725 mmHg 88%
    05:00 +24°C° 0.2 mm 1 mps 726 mmHg 87%
    06:00 +24°C° 0.2 mm 1 mps 726 mmHg 86%
    07:00 +25°C° 0.2 mm 1 mps 726 mmHg 85%
    08:00 +26°C° 0.1 mm 1 mps 726 mmHg 77%
    09:00 +27°C° 0.1 mm 2 mps 727 mmHg 70%
    10:00 +28°C° 0.1 mm 2 mps 727 mmHg 63%
    11:00 +29°C° 0 mm 2 mps 727 mmHg 57%
    12:00 +30°C° 0 mm 2 mps 727 mmHg 52%
    13:00 +31°C° 0 mm 3 mps 727 mmHg 47%
    14:00 +31°C° 0 mm 3 mps 727 mmHg 48%
    15:00 +31°C° 0 mm 3 mps 727 mmHg 49%
    16:00 +33°C° 0 mm 3 mps 727 mmHg 50%
    17:00 +30°C° 0.7 mm 3 mps 727 mmHg 60%
    18:00 +28°C° 0.7 mm 3 mps 727 mmHg 71%
    19:00 +26°C° 0.7 mm 3 mps 727 mmHg 81%
    20:00 +24°C° 2 mm 2 mps 727 mmHg 85%
    21:00 +21°C° 2 mm 2 mps 728 mmHg 89%
    22:00 +20°C° 2 mm 2 mps 728 mmHg 93%
    23:00 +20°C° 0.3 mm 1 mps 728 mmHg 92%
    Show more